Regional Weather Roundup
Issued by NWS

Home | Current Version | Previous Version | Text Only | Print | Product List | Glossary On
Versions: 1 2 3 4 5 6 7 8 9 10 11 12 13 14 15 16 17 18 19 20 21 22 23 24 25 26 27 28 29 30 31 32 33 34 35 36 37 38 39 40 41 42 43 44 45 46 47 48 49 50
423
ASCA44 KEWX 052220
RWRMX

LATIN AMERICA AND CARIBBEAN REGIONAL WEATHER ROUNDUP
NATIONAL WEATHER SERVICE AUSTIN/SAN ANTONIO TX
400 PM CST FRI FEB 05 2016

NOTE: "FAIR" INDICATED FEW OR NO CLOUDS BELOW 12,000 FEET WITH NO
SIGNIFICANT WEATHER AND/OR OBSTRUCTIONS TO VISIBILITY.

BAJA CALIFORNIA

CITY           SKY/WX    TMP DP  RH WIND       PRES   REMARKS
LORETO         SUNNY     72  50  46 N12       30.05
LA PAZ         PTSUNNY   72  48  43 N20       30.07S
MEXICALI       SUNNY     70  16  12 N14       30.32
S.J. DEL CABO  PTSUNNY   77  48  36 NW29      30.01F
TIJUANA        SUNNY     73  21  14 W6        30.23F

NORTHWESTERN MEXICO

CITY           SKY/WX    TMP DP  RH WIND       PRES   REMARKS
CULIACAN       MOSUNNY   82  61  47 W6        29.99
DURANGO        MOSUNNY   75  -8   4 W17       30.14
GUAYMAS        SUNNY     79  18  10 N14       30.00
HERMOSILLO     SUNNY     79  16   9 CALM      30.10
CD. JUAREZ     SUNNY     54  19  26 N12       30.31
LOS MOCHIS     PTSUNNY   75  43  31 NW15      30.03F
OBREGON        MOSUNNY   77  30  18 W10       29.99

NORTHEASTERN MEXICO

CITY           SKY/WX    TMP DP  RH WIND       PRES   REMARKS
CHIHUAHUA      SUNNY     57   9  14 N18       30.26
MATAMOROS      CLOUDY    66  50  55 E14       30.28
MONCLOVA         N/A    N/A N/A N/A MISG        N/A
MONTERREY      PTSUNNY   63  36  36 NE6       30.19F
NUEVO LAREDO   MOSUNNY   66  39  37 SE22      30.22
PIEDRAS NEGRAS SUNNY     64  41  42 SE8       30.24F
REYNOSA        CLOUDY    63  41  45 SE9       30.23
SALTILLO       SUNNY     54  36  50 NW7       30.23F
TORREON        MOSUNNY   72  27  18 N5        30.13F
CD. VICTORIA   SUNNY     70  41  35 SE14      30.16

WESTERN MEXICO

CITY           SKY/WX    TMP DP  RH WIND       PRES   REMARKS
AGUASCALIENTES SUNNY     73  16  11 S6        30.20
COLIMA           N/A    N/A N/A N/A MISG        N/A
DEL BAJIO      SUNNY     79  28  15 W7        30.24F
GUADALAJARA    SUNNY     77  32  19 N6        30.14
MANZANILLO     SUNNY     84  70  61 W12       29.85F
MAZATLAN       MOSUNNY   86  55  35 SW6       29.96F
P. VALLARTA    PTSUNNY   79  66  65 SW12      29.93F
URUAPAN        MOSUNNY   75  54  46 S9        30.14F
ZACATECAS      SUNNY     75  18  11 W23       30.21F

CENTRAL MEXICO

CITY           SKY/WX    TMP DP  RH WIND       PRES   REMARKS
CUERNAVACA     SUNNY     81  39  22 CALM      30.08F
MEXICO CITY    SUNNY     73  32  21 E5        30.23F
MORELIA        SUNNY     79  25  13 NE2       30.16
POZA RICA      CLOUDY    63  54  72 CALM      30.24F
PUEBLA         SUNNY     72  34  25 S7        30.25F
QUERETARO      SUNNY     75  27  16 W7        30.23F
S. LUIS POTOSI SUNNY     70  25  18 NE7       30.18F
TAMPICO        CLOUDY    66  48  52 SE12      30.20F
TOLUCA         SUNNY     77  28  16 SW7       30.30F

SOUTHERN MEXICO

CITY           SKY/WX    TMP DP  RH WIND       PRES   REMARKS
ACAPULCO       SUNNY     88  73  62 SW10      29.83F HX  96
B. DE HUATULCO MOSUNNY   91  79  66 E14       29.87  HX 107
OAXACA         SUNNY     75  37  25 S10       30.17F
P. ESCONDIDO   SUNNY     82  70  65 S8        29.94F
VERACRUZ       CLOUDY    70  57  64 NE10      30.20F
ZIHUATANEJO    MOSUNNY   90  72  55 W7        29.83F HX  96

YUCATAN PENINSULA

CITY           SKY/WX    TMP DP  RH WIND       PRES   REMARKS
CAMPECHE       DRIZZLE   64  64 100 N9        30.12F
CANCUN         CLOUDY    72  68  88 NE6       30.08S
CHETUMAL       LGT RAIN  68  63  83 NW6       30.07
CD. DEL CARMEN CLOUDY    70  63  78 N17       30.13
COZUMEL        CLOUDY    70  68  94 N17       30.07S
MERIDA         LGT RAIN  66  64  94 N7        30.14S
MINATITLAN     CLOUDY    66  64  94 CALM      30.12
TAPACHULA      MOSUNNY   86  75  70 S7        29.85S HX  95
TUX. GUTIERREZ MOSUNNY   72  54  53 NW17G29   30.05S
VILLAHERMOSA   CLOUDY    66  66 100 N5        30.18F FOG

CENTRAL AMERICA

CITY           SKY/WX    TMP DP  RH WIND       PRES   REMARKS
BELIZE CITY    DRIZZLE   68  66  94 W8        30.07F
MANAGUA        PTCLDY    93  68  43 E14       29.80S HX  97

CARIBBEAN

CITY           SKY/WX    TMP DP  RH WIND       PRES   REMARKS
ARUBA          PTCLDY    82  72  69 E15       29.89R
CURACAO        PTCLDY    81  73  78 E10       29.92R
KINGSTON       MOSUNNY   84  64  51 NW12      29.92R
NASSAU         CLOUDY    73  66  78 N14       30.08
SAN JUAN       LGT RAIN  73  70  88 N3        29.98R
SANTO DOMINGO  PTCLDY    82  72  69 E7        29.92S
ST. CROIX      CLOUDY    79  66  65 S5        30.00R
ST. KITTS      PTCLDY    79  66  65 SW8       30.00R
ST. MAARTEN    PTCLDY    79  68  69 VRB2      30.00R
ST. THOMAS     PTCLDY    79  70  73 S6        29.98R

$$





USA.gov is the U.S. government's official web portal to all federal, state and local government web resources and services.